This demonstration page uses our WeatherBlox Daily Observations layout. Learn more.

Left ArrowRight Arrow

44.89941, -97.11507

Hourly Observations for August 11, 2022

Temp ( °F °C ) Dew Point ( °F °C ) Humidity (%) Winds ( mph kmh ) Pressure ( in mb ) Visibility ( mi km ) Precip ( " mm )
12:53 am 00:53 Mostly Cloudy 70 21.1 57 13.9 63 63 ENE 7 11 30.19 1022 10 16 0.00 0.00
1:53 am 01:53 Mostly Clear 70 21.1 56 13.3 61 61 E 8 13 30.17 1022 10 16 0.00 0.00
2:53 am 02:53 Cloudy 70 21.1 56 13.3 61 61 E 7 11 30.17 1022 10 16 0.00 0.00
3:53 am 03:53 Partly Cloudy 69 20.6 55 12.8 61 61 E 8 13 30.16 1022 10 16 0.00 0.00
4:53 am 04:53 Cloudy 69 20.6 56 13.3 63 63 ESE 9 15 30.16 1021 10 16 0.00 0.00
5:13 am 05:13 Mostly Cloudy 68 20 57 13.9 68 68 E 8 13 30.12 1020 10 16 0.00 0.00
5:23 am 05:23 Cloudy 68 20 56 13.3 65 65 ESE 8 13 30.12 1020 10 16 0.00 0.00
5:53 am 05:53 Mostly Cloudy 68 20 56 13.3 65 65 ESE 7 11 30.14 1021 10 16 0.00 0.00
6:28 am 06:28 Cloudy 68 20 55 12.8 63 63 E 8 13 30.15 1021 10 16 0.00 0.00
6:53 am 06:53 Cloudy 68 20 56 13.3 65 65 E 8 13 30.15 1021 10 16 0.00 0.00
7:53 am 07:53 Partly Cloudy 67 19.4 56 13.3 68 68 ESE 9 15 30.15 1021 10 16 0.00 0.00
8:45 am 08:45 Cloudy 65 18.3 56 13.3 73 73 SE 16 26 30.11 1020 10 16 0.01 0.13
8:53 am 08:53 Cloudy with Light Rain 65 18.3 56 13.3 73 73 ESE 12 19 30.13 1020 10 16 0.01 0.13
9:53 am 09:53 Cloudy with Light Rain 65 18.3 57 13.9 76 76 E 9 15 30.15 1021 10 16 0.01 0.13
10:53 am 10:53 Sunny 68 20 58 14.4 70 70 E 10 17 30.16 1021 10 16 0.01 0.13
11:53 am 11:53 Mostly Sunny 71 21.7 59 15 66 66 E 10 17 30.15 1021 10 16 0.00 0.00
12:53 pm 12:53 Sunny 72 22.2 60 15.6 66 66 ENE 12 19 30.14 1021 10 16 0.01 0.13
1:53 pm 13:53 Partly Cloudy 71 21.7 60 15.6 68 68 ESE 14 22 30.10 1019 10 16 0.00 0.00
2:53 pm 14:53 Sunny 72 22.2 61 16.1 68 68 ESE 12 19 30.11 1020 10 16 0.00 0.00
3:53 pm 15:53 Mostly Sunny 71 21.7 61 16.1 70 70 E 12 19 30.11 1020 10 16 0.00 0.00
4:53 pm 16:53 Sunny 71 21.7 62 16.7 73 73 E 10 17 30.11 1020 10 16 0.00 0.00
5:53 pm 17:53 Sunny 70 21.1 62 16.7 76 76 E 8 13 30.11 1020 10 16 0.00 0.00
6:53 pm 18:53 Sunny 70 21.1 63 17.2 78 78 E 13 20 30.09 1019 10 16 0.00 0.00
7:53 pm 19:53 Sunny 69 20.6 63 17.2 81 81 ESE 10 17 30.07 1018 10 16 0.00 0.00
8:53 pm 20:53 Clear 68 20 62 16.7 81 81 ESE 9 15 30.06 1018 10 16 0.00 0.00
9:53 pm 21:53 Clear 68 20 62 16.7 81 81 SE 10 17 30.06 1018 10 16 0.00 0.00
10:53 pm 22:53 Clear 67 19.4 63 17.2 87 87 ESE 12 19 30.04 1017 10 16 0.00 0.00
11:53 pm 23:53 Clear 67 19.4 64 17.8 90 90 SE 10 17 30.03 1017 10 16 0.00 0.00

Powered by AerisWeather